SCP
0 0 0 0 0 0 0 0 0 0 0 0 0 0 0 0 0 0 0 0 0 0 0 0 0 0 0 0 0 0 0 0 0 0 0 0 0 0 0 0 0 0 0 0
0 0 0 0 0 0 0 0 0 0 0 0 0 0 0 0 0 0 0 0 0 0 0 0 0 0 0 0 0 0 0 0 0 0 0 0 0 0 0 0 0 0 0 0
0 0 0 0 0 0 0 0 0 0 0 0 0 0 0 0 0 0 0 0 0 0 0 0 0 0 0 0 0 0 0 0 0 0 0 0 0 0 0 0 0 0 0 0
0 0 0 0 0 0 0 0 0 0 0 0 0 0 0 0 0 0 0 0 0 0 0 0 0 0 0 0 0 0 0 0 0 0 0 0 0 0 0 0 0 0 0 0
0 0 0 0 0 0 0 0 0 0 0 0 0 0 0 0 0 0 0 0 0 0 0 0 0 0 0 0 0 0 0 0 0 0 0 0 0 0 0 0 0 0 0 0
0 0 0 0 0 0 0 0 0 0 0 0 0 0 0 0 0 0 0 0 0 0 0 0 0 0 0 0 0 0 0 0 0 0 0 0 0 0 0 0 0 0 0 0
0 0 0 0 0 0 0 0 0 0 0 0 0 0 0 0 0 0 0 0 0 0 0 0 0 0 0 0 0 0 0 0 0 0 0 0 0 0 0 0 0 0 0 0
0 0 0 0 0 0 0 0 0 0 0 0 0 0 0 0 0 0 0 0 0 0 0 0 0 0 0 0 0 0 0 0 0 0 0 0 0 0 0 0 0 0 0 0
0 0 0 0 0 0 0 0 0 0 0 0 0 0 0 0 0 0 0 0 0 0 0 0 0 0 0 0 0 0 0 0 0 0 0 0 0 0 0 0 0 0 0 0
0 0 0 0 0 0 0 0 0 0 0 0 0 0 0 0 0 0 0 0 0 0 0 0 0 0 0 0 0 0 0 0 0 0 0 0 0 0 0 0 0 0 0 0
0 0 0 0 0 0 0 0 0 0 0 0 0 0 0 0 0 0 0 0 0 0 0 0 0 0 0 0 0 0 0 0 0 0 0 0 0 0 0 0 0 0 0 0
0 0 0 0 0 0 0 0 0 0 0 0 0 0 0 0 -0 0 0 0 0 0 0 0 0 0 0 0 0 0 0 0 0 0 0 0 0 0 0 0 0 0 0 0
0 0 0 0 0 0 0 0 0 0 0 0 0 0 0 -0 0 0 0 0 0 0 0 0 0 0 0 0 0 0 0 0 0 0 0 0 0 0 0 0 0 0 0 0
0 0 0 0 0 0 0 0 0 0 0 0 0 0 -0 0 0 0 0 0 0 0 0 0 0 0 0 0 0 0 0 0 0 0 0 0 0 0 0 0 0 0 0 0
0 0 0 0 0 0 0 0 0 0 0 0 0 0 -0 0 0 0 0 0 0 0 0 0 0 0 0 0 0 0 0 0 0 0 0 0 0 0 0 0 0 0 0 0
0 0 0 0 0 0 0 0 0 0 0 0 0 0 0 0 0 0 0 0 0 0 0 0 0 0 0 0 0 0 0 0 0 0 0 0 0 0 0 0 0 0 0 0
0 0 0 0 0 0 0 0 0 0 0 0 0 0 0 0 0 0 0 0 0 0 0 0 0 0 0 0 0 0 0 0 0 0 0 0 0 0 0 0 0 0 0 0
0 0 0 0 0 0 0 0 0 0 0 0 0 0 0 0 0 0 0 0 0 0 0 0 0 0 0 0 0 0 0 0 0 0 0 0 0 0 0 0 0 0 0 0
0 0 0 0 0 0 0 0 0 0 0 0 0 0 0 0 0 0 0 0 0 0 0 0 0 0 0 0 0 0 0 0 0 0 0 0 0 0 0 0 0 0 0 0
0 0 0 0 0 -0 -0 0 0 0 0 0 0 0 0 0 0 0 0 0 0 0 0 0 0 0 0 0 0 0 0 0 0 0 0 0 0 0 0 0 0 0 0 0
0 0 0 0 -0 0 0 0 0 0 0 0 0 0 0 0 0 0 0 0 0 0 0 0 0 0 0 0 0 0 0 0 0 0 0 0 0 0 0 0 0 0 0 0
0 0 0 0 0 0 0 0 0 0 0 0 0 0 0 0 0 0 0 0 0 0 0 0 0 0 0 0 0 0 0 0 0 0 0 0 0 0 0 0 0 0 0 0
0 0 0 0 0 0 0 0 0 0 0 0 0 0 0 0 0 0 0 0 0 0 0 0 0 0 0 0 0 0 0 0 0 0 0 0 0 0 0 0 0 0 0 0
0 0 0 0 0 0 0 0 0 0 0 0 0 0 0 0 0 0 0 0 0 0 0 0 0 0 0 0 0 0 0 0 0 0 0 0 0 0 0 0 0 0 0 0
-0 -0 0 0 0 0 0 0 0 0 0 0 0 0 0 0 0 0 0 0 0 0 0 0 0 0 0 0 0 0 0 0 0 0 0 0 0 0 0 0 0 0 0 0
0 0 -0 0 0 0 0 0 0 0 0 0 0 0 0 0 0 0 0 0 0 0 0 0 0 0 0 0 0 0 0 0 0 0 0 0 0 0 0 0 0 0 0 0
0 0 -0 0 0 0 0 0 0 0 0 0 0 0 0 0 0 0 0 0 0 0 0 0 0 0 0 0 0 0 0 0 0 0 0 0 0 0 0 0 0 0 0 0
Wind_Speed
7 6 3 6 7 7 9 10 11 11 11 13 7 6 6 5 5 4 4 4 4 4 4 4 4 4 3 4 3 3 3 3 4 4 3 3 2 2 1 1 2 2 2 2
5 5 5 8 9 9 11 10 13 13 16 9 6 3 4 5 5 5 5 5 4 4 4 4 4 5 5 4 4 3 3 3 4 3 3 3 2 2 2 2 2 2 2 2
5 4 4 10 11 11 9 8 8 13 14 6 5 5 5 6 5 6 6 5 5 4 4 4 5 4 5 5 4 3 3 3 4 3 3 3 3 2 2 2 1 2 2 2
2 1 9 9 3 6 8 9 9 8 7 6 6 6 5 5 5 5 5 5 4 4 4 4 4 4 4 4 4 3 3 4 4 3 4 3 3 2 2 2 2 2 2 3
2 5 11 8 3 4 5 8 7 10 9 7 4 3 4 4 4 5 5 5 4 3 4 4 4 4 4 4 4 3 4 4 4 4 4 4 3 3 3 2 2 2 2 3
3 5 9 7 2 1 2 7 4 5 7 4 0 3 5 3 3 4 4 3 3 3 3 3 4 3 3 4 4 5 5 5 4 4 4 4 4 3 2 2 2 2 3 3
6 8 11 5 1 4 3 7 3 3 5 4 5 6 5 4 3 3 3 3 3 3 3 3 3 3 3 4 5 6 5 5 4 4 4 4 3 2 2 2 2 2 3 3
5 6 11 2 5 7 7 2 2 3 3 4 5 5 4 4 3 3 3 4 3 3 4 3 2 2 4 5 5 5 5 5 4 4 3 2 2 2 2 2 2 2 2 2
9 9 4 4 6 4 1 3 3 3 3 3 3 4 4 4 4 3 3 4 3 3 4 4 3 2 4 5 4 4 4 4 4 4 3 2 2 2 2 1 2 2 2 2
5 8 5 5 4 3 3 4 4 3 4 3 4 5 5 4 4 4 4 4 3 3 4 5 4 4 4 5 4 3 4 4 3 3 3 2 2 2 2 2 2 2 3 3
6 6 5 5 5 5 4 4 4 4 4 4 4 5 5 4 4 4 4 3 3 3 4 5 5 5 5 4 3 3 3 3 3 3 2 2 2 2 2 3 3 3 3 3
7 5 4 6 3 3 4 5 4 4 5 4 4 5 4 4 4 3 4 3 3 4 4 5 4 5 4 3 2 2 3 3 3 2 2 2 2 3 4 4 5 6 6 5
6 4 4 5 4 2 3 5 4 4 4 4 4 3 3 3 3 3 3 3 4 4 4 4 4 5 4 3 2 2 3 3 3 2 2 2 2 2 3 4 5 5 5 6
4 3 3 4 4 4 3 4 3 3 3 2 3 2 2 2 3 3 4 4 4 4 4 4 4 5 4 3 2 2 3 4 3 2 2 2 2 2 2 2 3 3 4 5
4 4 4 4 3 3 3 2 2 3 3 3 2 2 2 3 4 4 4 4 3 3 4 3 4 5 4 2 2 2 2 2 2 2 2 2 2 2 1 2 2 3 2 3
3 3 3 3 4 4 3 2 2 4 3 3 3 3 3 3 3 4 3 3 3 4 4 4 5 4 3 2 2 2 2 4 3 2 2 2 2 1 1 1 2 2 2 3
2 3 3 4 5 4 3 3 3 4 3 3 4 3 3 3 3 4 4 3 3 4 4 4 5 4 3 3 2 2 2 3 4 2 2 2 1 1 1 1 1 2 2 3
5 5 4 4 4 4 4 3 3 3 3 3 3 3 3 3 3 4 4 3 3 4 4 4 4 3 3 3 2 2 2 2 2 2 2 1 1 1 1 1 2 2 2 3
3 3 2 2 2 2 2 3 3 2 2 2 2 3 3 3 3 3 3 3 3 5 5 4 6 4 3 4 3 1 2 2 2 2 2 3 2 1 1 1 2 2 2 2
1 1 1 1 1 1 2 2 2 2 2 2 2 2 3 3 3 3 3 3 3 4 4 5 4 3 3 4 4 1 1 2 2 2 2 1 2 2 2 2 2 2 2 2
1 1 1 1 1 1 1 1 1 2 2 2 1 2 3 4 3 2 2 3 4 4 4 6 3 3 3 3 3 1 2 2 2 2 2 2 2 2 2 2 2 2 2 2
1 0 1 1 1 2 2 1 1 1 2 2 2 2 2 3 3 3 2 3 4 7 4 3 3 5 5 4 2 2 2 2 2 2 2 2 2 3 3 3 3 3 3 3
1 0 1 1 1 1 2 2 1 1 2 2 2 2 2 3 2 2 3 3 4 6 4 3 6 8 7 3 2 2 2 3 3 2 2 3 3 3 3 3 3 3 3 3
0 1 1 1 1 1 2 2 2 2 2 2 2 2 2 2 3 2 3 6 8 8 4 6 9 9 6 2 2 2 3 3 3 3 3 3 3 3 3 3 3 3 3 4
0 1 1 1 1 1 1 2 2 2 2 2 3 3 2 2 2 3 4 4 8 7 4 6 9 9 4 2 3 3 3 3 4 3 3 3 3 3 3 3 4 4 4 4
0 0 1 1 1 1 1 1 1 2 2 3 3 3 3 2 2 3 3 4 5 7 5 3 4 5 3 3 3 4 3 4 5 4 3 4 4 4 4 4 5 4 4 4
1 1 1 1 1 1 1 1 2 2 2 3 3 3 3 3 3 3 4 3 4 4 4 3 3 3 3 3 4 4 4 4 4 4 4 4 4 4 4 5 5 5 5 5
Wind_Direction
257 265 239 236 235 210 209 218 229 250 251 264 270 267 270 272 280 291 296 302 308 312 314 322 328 330 330 324 325 324 322 311 299 299 301 301 294 282 273 265 235 229 226 223
269 265 256 262 250 231 231 236 243 262 269 266 275 275 277 275 272 276 280 287 298 305 310 314 319 321 322 317 319 320 309 300 303 305 306 305 289 285 284 277 261 226 220 220
265 288 307 264 237 221 226 224 217 240 256 279 283 270 261 260 257 264 273 282 288 293 296 304 308 309 308 308 313 312 301 302 307 306 302 299 291 293 287 276 274 251 234 220
266 353 251 249 206 208 229 243 228 245 270 274 270 274 261 243 242 262 270 274 281 287 296 303 306 309 310 315 314 306 304 304 303 302 297 297 287 285 284 282 258 252 245 229
208 250 272 281 239 186 214 263 230 241 263 279 306 311 279 253 241 247 258 267 270 276 284 297 304 308 314 319 320 308 298 296 299 296 293 291 277 276 279 276 271 260 250 235
200 231 252 257 240 175 117 277 253 225 253 265 351 289 278 296 286 277 284 287 286 294 297 296 300 309 311 310 312 305 300 297 295 287 281 279 268 270 275 268 270 272 265 254
220 239 261 256 191 126 180 257 288 228 238 219 216 239 274 299 299 289 295 297 298 298 291 287 296 305 299 300 294 296 301 300 297 291 281 279 278 269 259 263 267 269 267 266
190 225 254 197 147 192 227 278 282 258 241 229 245 267 279 282 283 294 302 304 302 296 293 298 296 288 289 287 293 303 304 302 301 299 291 288 282 281 267 247 242 256 263 268
200 221 244 181 203 232 277 269 272 262 263 241 257 268 279 279 279 282 284 288 293 290 296 303 296 279 279 288 301 307 307 304 303 300 297 291 270 273 276 265 254 264 261 259
248 259 259 246 249 271 261 255 272 268 267 252 256 268 276 279 282 282 281 279 285 290 293 297 300 291 278 289 297 296 297 299 300 300 301 303 287 268 255 253 251 256 260 255
250 274 301 268 244 255 267 273 286 289 273 259 258 269 269 275 278 278 284 288 281 276 280 288 298 296 295 297 295 293 295 298 299 294 290 299 293 266 256 248 249 246 252 256
236 235 234 266 274 262 259 269 274 281 291 287 265 269 275 279 281 283 288 293 295 291 289 293 300 300 304 305 292 285 293 300 297 299 295 293 296 303 289 277 278 272 270 268
243 259 248 270 290 280 268 279 280 273 270 283 285 274 279 286 293 298 298 297 290 287 290 296 301 303 309 309 297 280 280 289 293 295 292 291 284 282 296 303 297 292 286 285
251 261 269 268 276 290 285 289 291 295 296 290 292 302 304 306 313 309 300 295 295 297 298 300 303 304 311 310 300 291 289 290 293 289 287 285 282 276 268 279 296 299 294 289
257 244 247 274 292 301 302 309 318 315 319 323 320 312 310 305 302 301 305 311 316 313 309 309 305 306 318 313 301 294 291 289 288 287 285 285 288 292 283 273 279 290 304 299
271 270 264 272 284 295 308 309 295 296 306 310 313 308 298 291 297 307 314 317 314 304 305 306 301 307 319 315 305 299 292 296 297 292 294 297 298 297 302 302 306 313 311 309
226 257 265 276 282 288 285 278 270 280 291 293 295 305 312 315 318 316 314 310 296 295 302 299 299 311 315 308 296 293 296 300 303 305 298 287 283 285 290 293 298 307 308 309
223 233 237 245 259 275 286 289 285 288 289 292 307 314 312 304 297 300 308 317 321 318 312 304 304 312 314 312 298 293 294 296 297 290 290 287 281 283 289 290 296 301 313 322
242 243 249 252 254 259 273 282 290 296 302 307 309 304 298 292 290 297 310 324 323 316 316 316 322 335 322 311 312 294 294 297 298 295 291 294 302 304 294 290 293 299 306 312
267 265 266 288 300 281 289 301 307 309 307 309 308 308 310 308 307 308 312 306 294 289 302 315 322 316 308 304 313 303 295 289 289 295 295 290 288 290 287 287 287 290 293 295
278 291 315 317 322 328 317 307 303 308 319 323 308 300 303 311 316 314 315 311 312 311 312 322 329 313 305 305 310 298 284 280 281 283 285 284 284 284 283 283 285 286 285 288
281 293 312 328 343 334 335 330 317 320 331 333 329 322 322 323 325 319 296 285 304 319 327 319 313 310 317 321 318 305 294 285 278 275 275 276 276 277 278 277 276 278 279 277
287 296 318 320 312 319 342 348 342 337 325 319 318 316 310 304 308 307 309 308 308 316 326 314 314 320 331 345 333 317 307 298 289 281 276 273 271 270 272 273 272 273 273 273
334 353 347 349 24 20 348 335 337 333 317 311 310 302 300 309 312 300 289 311 321 324 327 318 323 327 340 352 325 311 304 297 291 284 279 274 270 269 269 269 270 270 269 270
28 21 18 12 351 319 313 324 334 334 331 327 322 319 311 292 288 303 308 310 316 325 324 320 324 329 339 322 308 299 294 284 276 274 269 272 273 271 270 268 268 269 268 266
71 319 292 289 286 295 310 318 318 316 320 322 324 323 317 312 302 301 304 306 308 318 321 312 313 316 312 301 293 290 286 291 299 296 283 277 274 272 270 268 267 265 265 265
37 9 342 338 337 330 324 315 308 308 309 305 307 310 314 319 318 315 313 312 313 312 308 305 304 301 298 294 291 287 285 283 280 278 276 272 269 267 267 266 265 264 263 263